Location: Central Falls
(41.8900°N, 71.3929°W)
Time: 04:24:02
(UTC+00:00)

Vanguard 2 - Pass Details

Date: 10 December 2023
Orbit: 554 x 2918 km, 32.9° (Epoch: 01 March)

Event Time Altitude Azimuth Distance (km) Brightness Sun altitude
Rises 00:39:01 0° 239° (WSW) 6,476 12.9 -37.2°
Reaches altitude 10° 00:43:15 10° 235° (SW) 5,612 12.4 -38.0°
Maximum altitude 01:00:09 55° 165° (SSE) 3,250 10.3 -41.2°
Enters shadow 01:00:59 54° 156° (SSE) 3,240 10.3 -41.3°
Drops below altitude 10° 01:14:45 10° 93° (E) 4,928 - -43.9°
Sets 01:18:11 0° 89° (E) 5,674 - -44.5°
